STARLINK-2689 (48463 NORAD) Tracking and Keplerian Element Data

This shows tracking and keplerian element data for the satellite.

Feedback or suggestion? Click here.




ElementValue
Catalog48463
NameSTARLINK-2689
Epoch Orbit360
Epoch Day214.91667824
Epoch Year2021
RAAN172.3991
Inclination53.0537
Eccentricity0.0001567
Argument of Perigee78.9035
Mean Anonmoly85.1268
Mean Motion15.06391278
Decay Rate1.073E-05
L11 48463U 21040AM 21214.91667824 .00001073 00000-0 90912-4 0 9991
L22 48463 53.0537 172.3991 0001567 78.9035 85.1268 15.06391278 3604

Live tracking and technical data element details for STARLINK-2689 (NORAD 48463). STARLINK-2689 can be tracked NOW for your location showing map with azimuth and elevation plus other details from your city location.

Track the satellite on the map from your city or location and see movement details for azimuth, elevation, latitude, longitude, range, height, and movement on the map or in text.







IsCatalogInMostPopularTable: catalog: 48463, numindb: 26
Update: records affected: 1



GetName: 48463 STARLINK-2689

Hit Count: updated at: Tue, 03 Aug 2021 21:20:59 GMT